{"data":{"norad_id":48676,"epoch":"2026-09-19T19:12:21.277728Z","epoch_age_seconds":101759,"freshness":"FRESH","line1":"1 48676U 21044AQ  26262.80024627  .00001610  00000+0  63650-4 0  9990","line2":"2 48676  53.1599 292.0563 0001357  86.3799 273.7357 15.31699839293530","mean_motion":15.31699839,"eccentricity":0.0001357,"inclination_deg":53.1599,"raan_deg":292.0563,"arg_perigee_deg":86.3799,"mean_anomaly_deg":273.7357,"bstar":6.365e-5,"rev_number":29353,"period_min":94.013197843001,"perigee_km":469.81108248493,"apogee_km":471.66986783169,"semimajor_km":6848.8774751583,"source":"CELESTRAK","updated_at":"2026-09-20T09:00:39.242325Z"}}